Time,TemperatureF,DewpointF,PressureIn,WindDirection,WindDirectionDegrees,WindSpeedMPH,WindSpeedGustMPH,Humidity,HourlyPrecipIn,Conditions,Clouds,dailyrainin,SoftwareType,DateUTC
2013-06-18 00:00:00,59.5,58.4,29.83,NW,322,0.0,0.0,96,0.00,,,-99.99,VWS V12.06,2013-06-18 04:00:00,
2013-06-18 00:15:00,59.3,58.2,29.83,NW,322,0.0,0.0,96,0.00,,,-99.99,VWS V12.06,2013-06-18 04:15:00,
2013-06-18 00:30:00,59.3,58.2,29.83,NW,322,0.0,0.0,96,0.00,,,-99.99,VWS V12.06,2013-06-18 04:30:00,
2013-06-18 00:45:00,59.3,58.2,29.83,NW,322,0.0,0.0,96,0.00,,,-99.99,VWS V12.06,2013-06-18 04:45:00,
2013-06-18 01:00:00,59.2,58.1,29.82,NW,322,0.0,0.0,96,0.00,,,-99.99,VWS V12.06,2013-06-18 05:00:00,
2013-06-18 01:15:00,59.2,58.1,29.82,NW,322,0.0,0.0,96,0.00,,,-99.99,VWS V12.06,2013-06-18 05:15:00,
2013-06-18 01:30:00,59.5,58.4,29.83,NW,322,0.0,1.0,96,0.00,,,-99.99,VWS V12.06,2013-06-18 05:30:00,
2013-06-18 01:45:00,59.5,58.4,29.83,NW,322,0.0,0.0,96,0.00,,,-99.99,VWS V12.06,2013-06-18 05:45:00,
2013-06-18 02:00:00,59.5,58.4,29.83,NW,322,0.0,0.0,96,0.00,,,-99.99,VWS V12.06,2013-06-18 06:00:00,
2013-06-18 02:15:00,59.8,58.7,29.83,NW,322,0.0,0.0,96,0.00,,,-99.99,VWS V12.06,2013-06-18 06:15:00,
2013-06-18 02:30:00,59.8,58.7,29.83,NW,322,0.0,0.0,96,0.00,,,-99.99,VWS V12.06,2013-06-18 06:30:00,
2013-06-18 02:45:00,59.9,58.8,29.83,NW,322,0.0,0.0,96,0.00,,,-99.99,VWS V12.06,2013-06-18 06:45:00,
2013-06-18 03:00:00,60.2,59.1,29.83,NW,322,0.0,0.0,96,0.00,,,-99.99,VWS V12.06,2013-06-18 07:00:00,
2013-06-18 03:15:00,60.5,59.7,29.83,NW,322,0.0,0.0,97,0.00,,,-99.99,VWS V12.06,2013-06-18 07:15:00,
2013-06-18 03:30:00,60.7,59.6,29.83,NW,322,0.0,0.0,96,0.00,,,-99.99,VWS V12.06,2013-06-18 07:30:00,
2013-06-18 03:45:00,60.9,59.8,29.83,NW,322,0.0,0.0,96,0.00,,,-99.99,VWS V12.06,2013-06-18 07:45:00,
2013-06-18 04:00:00,60.7,59.6,29.82,NW,322,0.0,0.0,96,0.00,,,-99.99,VWS V12.06,2013-06-18 08:00:00,
2013-06-18 04:15:00,60.4,59.3,29.81,NW,322,0.0,0.0,96,0.00,,,-99.99,VWS V12.06,2013-06-18 08:15:00,
2013-06-18 04:30:00,59.9,58.8,29.81,NW,322,0.0,0.0,96,0.00,,,-99.99,VWS V12.06,2013-06-18 08:30:00,
2013-06-18 04:45:00,59.5,58.4,29.82,NW,322,0.0,0.0,96,0.00,,,-99.99,VWS V12.06,2013-06-18 08:45:00,
2013-06-18 05:00:00,59.2,58.1,29.82,NW,322,0.0,0.0,96,0.00,,,-99.99,VWS V12.06,2013-06-18 09:00:00,
2013-06-18 05:15:00,59.0,57.9,29.82,NW,322,0.0,0.0,96,0.00,,,-99.99,VWS V12.06,2013-06-18 09:15:00,
2013-06-18 05:30:00,59.2,58.1,29.83,NW,322,0.0,0.0,96,0.00,,,-99.99,VWS V12.06,2013-06-18 09:30:00,
2013-06-18 05:45:00,59.5,58.4,29.83,NW,322,0.0,0.0,96,0.00,,,-99.99,VWS V12.06,2013-06-18 09:45:00,
2013-06-18 06:00:00,59.6,58.5,29.83,NW,322,0.0,0.0,96,0.00,,,-99.99,VWS V12.06,2013-06-18 10:00:00,
2013-06-18 06:15:00,59.9,58.8,29.84,NW,322,0.0,0.0,96,0.00,,,-99.99,VWS V12.06,2013-06-18 10:15:00,
2013-06-18 06:30:00,60.5,59.4,29.84,NW,322,0.0,0.0,96,0.00,,,-99.99,VWS V12.06,2013-06-18 10:30:00,
2013-06-18 06:45:00,60.9,59.8,29.85,NW,322,0.0,0.0,96,0.00,,,-99.99,VWS V12.06,2013-06-18 10:45:00,
2013-06-18 07:00:00,61.6,60.5,29.85,NW,322,0.0,3.0,96,0.00,,,-99.99,VWS V12.06,2013-06-18 11:00:00,
2013-06-18 07:15:00,62.9,61.8,29.85,NW,322,0.0,1.0,96,0.00,,,-99.99,VWS V12.06,2013-06-18 11:15:00,
2013-06-18 07:30:00,64.0,62.2,29.86,NW,322,0.0,1.0,94,0.00,,,-99.99,VWS V12.06,2013-06-18 11:30:00,
2013-06-18 07:45:00,64.2,61.8,29.86,NW,322,0.0,0.0,92,0.00,,,-99.99,VWS V12.06,2013-06-18 11:45:00,
2013-06-18 08:00:00,62.9,59.9,29.86,SSW,199,0.0,2.0,90,0.00,,,-99.99,VWS V12.06,2013-06-18 12:00:00,
2013-06-18 08:15:00,62.9,60.2,29.87,South,182,0.0,1.0,91,0.00,,,-99.99,VWS V12.06,2013-06-18 12:15:00,
2013-06-18 08:30:00,63.1,60.4,29.88,South,179,0.0,0.0,91,0.00,,,-99.99,VWS V12.06,2013-06-18 12:30:00,
2013-06-18 08:45:00,63.9,60.6,29.88,South,179,0.0,0.0,89,0.00,,,-99.99,VWS V12.06,2013-06-18 12:45:00,
2013-06-18 09:00:00,65.3,61.0,29.88,South,179,0.0,1.0,86,0.00,,,-99.99,VWS V12.06,2013-06-18 13:00:00,
2013-06-18 09:15:00,65.8,60.8,29.88,South,174,0.0,0.0,84,0.00,,,-99.99,VWS V12.06,2013-06-18 13:15:00,
2013-06-18 09:30:00,66.4,60.7,29.88,South,174,0.0,0.0,82,0.00,,,-99.99,VWS V12.06,2013-06-18 13:30:00,
2013-06-18 09:45:00,66.4,60.4,29.88,ESE,113,0.0,2.0,81,0.00,,,-99.99,VWS V12.06,2013-06-18 13:45:00,
2013-06-18 10:00:00,66.4,60.4,29.88,ESE,113,1.0,1.0,81,0.00,,,-99.99,VWS V12.06,2013-06-18 14:00:00,
2013-06-18 10:15:00,66.8,60.4,29.88,ESE,113,0.0,0.0,80,0.00,,,-99.99,VWS V12.06,2013-06-18 14:15:00,
2013-06-18 10:30:00,67.3,60.9,29.88,ESE,113,0.0,0.0,80,0.00,,,-99.99,VWS V12.06,2013-06-18 14:30:00,
2013-06-18 10:45:00,68.1,61.0,29.87,ESE,113,0.0,0.0,78,0.00,,,-99.99,VWS V12.06,2013-06-18 14:45:00,
2013-06-18 11:00:00,68.8,61.7,29.87,ESE,113,0.0,1.0,78,0.00,,,-99.99,VWS V12.06,2013-06-18 15:00:00,
2013-06-18 11:15:00,69.4,61.9,29.87,ESE,113,0.0,0.0,77,0.00,,,-99.99,VWS V12.06,2013-06-18 15:15:00,
2013-06-18 11:30:00,70.1,62.2,29.86,ESE,113,0.0,1.0,76,0.00,,,-99.99,VWS V12.06,2013-06-18 15:30:00,
2013-06-18 11:45:00,70.3,62.4,29.86,ESE,112,1.0,1.0,76,0.00,,,-99.99,VWS V12.06,2013-06-18 15:45:00,
2013-06-18 12:00:00,70.3,62.0,29.86,North,7,0.0,1.0,75,0.00,,,-99.99,VWS V12.06,2013-06-18 16:00:00,
2013-06-18 12:15:00,70.4,62.1,29.86,NNE,20,0.0,1.0,75,0.00,,,-99.99,VWS V12.06,2013-06-18 16:15:00,
2013-06-18 12:30:00,71.6,62.9,29.85,NNE,20,0.0,1.0,74,0.00,,,-99.99,VWS V12.06,2013-06-18 16:30:00,
2013-06-18 12:45:00,71.8,63.8,29.84,NNE,28,0.0,0.0,76,0.00,,,-99.99,VWS V12.06,2013-06-18 16:45:00,
2013-06-18 13:00:00,72.1,62.6,29.84,NNE,32,0.0,5.0,72,0.00,,,-99.99,VWS V12.06,2013-06-18 17:00:00,
2013-06-18 13:15:00,72.3,62.8,29.84,NE,56,0.0,5.0,72,0.00,,,-99.99,VWS V12.06,2013-06-18 17:15:00,
2013-06-18 13:30:00,72.3,62.4,29.84,NNW,333,0.0,1.0,71,0.00,,,-99.99,VWS V12.06,2013-06-18 17:30:00,
2013-06-18 13:45:00,70.9,61.4,29.84,NE,35,1.0,3.0,72,0.00,,,-99.99,VWS V12.06,2013-06-18 17:45:00,
2013-06-18 14:00:00,68.8,60.9,29.83,East,79,3.0,4.0,76,0.00,,,-99.99,VWS V12.06,2013-06-18 18:00:00,
2013-06-18 14:15:00,65.5,60.9,29.84,NNE,17,0.0,2.0,85,0.07,,,-99.99,VWS V12.06,2013-06-18 18:15:00,
2013-06-18 14:30:00,63.7,60.7,29.84,NNW,329,0.0,3.0,90,0.15,,,-99.99,VWS V12.06,2013-06-18 18:30:00,
2013-06-18 14:45:00,62.7,60.3,29.85,NNW,340,0.0,6.0,92,0.16,,,-99.99,VWS V12.06,2013-06-18 18:45:00,
2013-06-18 15:00:00,61.6,59.3,29.85,NW,305,0.0,1.0,92,0.16,,,-99.99,VWS V12.06,2013-06-18 19:00:00,
2013-06-18 15:15:00,60.5,58.5,29.85,East,83,1.0,4.0,93,0.16,,,-99.99,VWS V12.06,2013-06-18 19:15:00,
2013-06-18 15:30:00,60.5,58.5,29.85,WNW,291,0.0,3.0,93,0.16,,,-99.99,VWS V12.06,2013-06-18 19:30:00,
2013-06-18 15:45:00,60.5,58.8,29.86,ESE,103,0.0,1.0,94,0.01,,,-99.99,VWS V12.06,2013-06-18 19:45:00,
2013-06-18 16:00:00,60.4,58.7,29.86,East,85,0.0,0.0,94,0.01,,,-99.99,VWS V12.06,2013-06-18 20:00:00,
2013-06-18 16:15:00,59.9,58.2,29.87,East,96,0.0,1.0,94,0.00,,,-99.99,VWS V12.06,2013-06-18 20:15:00,
2013-06-18 16:30:00,59.8,58.1,29.88,East,89,0.0,0.0,94,0.01,,,-99.99,VWS V12.06,2013-06-18 20:30:00,
2013-06-18 16:45:00,59.9,58.2,29.88,ESE,103,0.0,2.0,94,0.04,,,-99.99,VWS V12.06,2013-06-18 20:45:00,
2013-06-18 17:00:00,59.9,58.2,29.89,East,85,0.0,3.0,94,0.05,,,-99.99,VWS V12.06,2013-06-18 21:00:00,
2013-06-18 17:15:00,59.8,58.4,29.87,East,97,0.0,0.0,95,0.05,,,-99.99,VWS V12.06,2013-06-18 21:15:00,
2013-06-18 17:30:00,59.5,58.1,29.87,East,97,0.0,1.0,95,0.05,,,-99.99,VWS V12.06,2013-06-18 21:30:00,
2013-06-18 17:45:00,59.5,58.1,29.87,East,97,0.0,1.0,95,0.04,,,-99.99,VWS V12.06,2013-06-18 21:45:00,
2013-06-18 18:00:00,59.6,58.2,29.88,East,100,0.0,0.0,95,0.04,,,-99.99,VWS V12.06,2013-06-18 22:00:00,
2013-06-18 18:15:00,59.5,58.1,29.87,East,95,0.0,0.0,95,0.00,,,-99.99,VWS V12.06,2013-06-18 22:15:00,
2013-06-18 18:30:00,59.5,58.1,29.87,East,95,0.0,0.0,95,0.00,,,-99.99,VWS V12.06,2013-06-18 22:30:00,
2013-06-18 18:45:00,59.5,58.1,29.86,East,95,1.0,1.0,95,0.00,,,-99.99,VWS V12.06,2013-06-18 22:45:00,
2013-06-18 19:00:00,59.3,57.9,29.86,ESE,106,0.0,0.0,95,0.00,,,-99.99,VWS V12.06,2013-06-18 23:00:00,
2013-06-18 19:15:00,59.5,58.1,29.86,ESE,106,0.0,1.0,95,0.00,,,-99.99,VWS V12.06,2013-06-18 23:15:00,
2013-06-18 19:30:00,59.6,58.2,29.86,ENE,66,0.0,1.0,95,0.00,,,-99.99,VWS V12.06,2013-06-18 23:30:00,
2013-06-18 19:45:00,59.5,58.1,29.86,NNE,32,0.0,0.0,95,0.00,,,-99.99,VWS V12.06,2013-06-18 23:45:00,
2013-06-18 20:00:00,59.5,58.4,29.86,NNE,32,0.0,0.0,96,0.00,,,-99.99,VWS V12.06,2013-06-19 00:00:00,
2013-06-18 20:15:00,59.6,58.5,29.85,NNE,32,0.0,0.0,96,0.00,,,-99.99,VWS V12.06,2013-06-19 00:15:00,
2013-06-18 20:30:00,58.9,57.5,29.85,NNW,329,0.0,3.0,95,0.00,,,-99.99,VWS V12.06,2013-06-19 00:30:00,
2013-06-18 20:45:00,58.1,56.7,29.85,NNW,329,0.0,0.0,95,0.00,,,-99.99,VWS V12.06,2013-06-19 00:45:00,
2013-06-18 21:00:00,58.0,56.6,29.86,NNW,329,0.0,0.0,95,0.00,,,-99.99,VWS V12.06,2013-06-19 01:00:00,
2013-06-18 21:15:00,57.6,56.2,29.86,NNW,329,0.0,0.0,95,0.00,,,-99.99,VWS V12.06,2013-06-19 01:15:00,
2013-06-18 21:30:00,57.6,56.2,29.87,NNW,329,0.0,0.0,95,0.00,,,-99.99,VWS V12.06,2013-06-19 01:30:00,
2013-06-18 21:45:00,57.5,56.1,29.87,NNW,329,0.0,0.0,95,0.00,,,-99.99,VWS V12.06,2013-06-19 01:45:00,
2013-06-18 22:00:00,57.5,56.1,29.87,NNW,329,0.0,0.0,95,0.00,,,-99.99,VWS V12.06,2013-06-19 02:00:00,
2013-06-18 22:15:00,57.6,56.2,29.88,NNW,329,0.0,0.0,95,0.00,,,-99.99,VWS V12.06,2013-06-19 02:15:00,
2013-06-18 22:30:00,57.6,56.2,29.87,NNW,329,0.0,0.0,95,0.02,,,-99.99,VWS V12.06,2013-06-19 02:30:00,
2013-06-18 22:45:00,57.3,55.9,29.87,NNW,329,0.0,0.0,95,0.08,,,-99.99,VWS V12.06,2013-06-19 02:45:00,
2013-06-18 23:00:00,57.2,55.8,29.86,NNW,329,0.0,2.0,95,0.14,,,-99.99,VWS V12.06,2013-06-19 03:00:00,
2013-06-18 23:15:00,57.0,55.6,29.86,NNW,329,0.0,0.0,95,0.17,,,-99.99,VWS V12.06,2013-06-19 03:15:00,
2013-06-18 23:30:00,57.0,55.9,29.86,NNW,329,0.0,0.0,96,0.19,,,-99.99,VWS V12.06,2013-06-19 03:30:00,
2013-06-18 23:45:00,57.0,55.9,29.86,NNW,329,1.0,3.0,96,0.17,,,-99.99,VWS V12.06,2013-06-19 03:45:00,